www.pogodaiklimat.ru

Погода и климат >> Архив погоды >> Австрия >> Файстриц-об-Блайбург


ПОГОДА в Файстриц-об-Блайбурге

  • Прогноз погоды в Файстриц-об-Блайбурге
  • Монитор погоды в Файстриц-об-Блайбурге

АРХИВ ПОГОДЫ в Файстриц-об-Блайбурге

Время (UTC), дата Ветер
(напр.,м/с)
 
Видим.   Явления Облачность Т
(С)
Тd
(С)
f
(%)
Тe
(С)
Тes
(С)
Комфортность P
(гПа)
Po
(гПа)
Тmin
(С)
Tmax
(С)
R
(мм)
R24
(мм)
S
(см)
22 10.06 ЮВ 3 н/о н/о +23.2 +15.3 61 +27 +27 душно 1011.1 951.8
23 10.06 ЮВ 3 н/о н/о +22.6 +15.4 64 +27 +27 душно 1010.8 951.4
00 11.06 ЮВ 4 н/о н/о +22.0 +15.4 66 +26 +26 душно 1010.2 950.7
01 11.06 В 4 н/о н/о +21.6 +15.7 69 +25 +25 комфорт 1009.8 950.3
02 11.06 Ю 1 н/о н/о +20.5 +15.1 71 +24 +24 комфорт 1010.2 950.4
03 11.06 Ю 2 н/о н/о +18.2 +14.0 76 +19 +19 1011.2 950.9
04 11.06 ЮВ 2 н/о н/о +18.8 +14.8 78 +20 +20 1010.6 950.4
05 11.06 ЮЗ 1 40 км 1/0
[Ci fib]
+20.3 +16.0 76 +24 +26 комфорт 1009.5 949.7
06 11.06 СВ 1 30 км 1/0
[Ci fib]
+22.9 +16.9 69 +28 +33 душно 1009.8 950.5 +17.2 +25.6
07 11.06 В 1 н/о н/о +24.5 +17.1 63 +28 +28 душно 1010.1 951.1
08 11.06 В 4 н/о н/о +26.3 +18.0 60 +31 +31 душно 1009.6 951.0
09 11.06 В 5 н/о н/о +25.8 +17.4 60 +30 +30 душно 1009.2 950.5
10 11.06 В 8 н/о н/о +26.7 +15.7 51 +30 +30 душно 1008.6 950.1
11 11.06 В 6 н/о н/о +27.7 +16.4 50 +31 +31 душно 1008.4 950.1
12 11.06 В 6 30 км 8/1 1500 м
[Cu med, cong Cs]
+29.3 +17.2 48 +33 +39 душно 1007.7 949.8
13 11.06 ЮВ 5 н/о н/о +27.7 +14.4 44 +30 +30 жарко 1008.1 949.8
14 11.06 ЮВ 3 н/о н/о +27.7 +9.8 33 +28 +28 жарко 1007.6 949.2
15 11.06 ЮЗ 2 н/о н/о +26.3 +11.8 40 +28 +28 жарко 1008.3 949.7 0.0
16 11.06 В 3 н/о н/о +24.4 +11.1 43 +26 +26 жарко 1009.0 949.9
17 11.06 СВ 1 н/о н/о +22.8 +13.8 57 +26 +26 жарко 1009.9 950.5
18 11.06 Ю 2 н/о в посл. час осадки н/о +20.4 +14.4 68 +24 +24 комфорт 1011.3 951.4 +19.7 +29.5 0.7
19 11.06 СЗ 1 н/о н/о +18.9 +15.2 79 +21 +21 комфорт 1012.4 952.2
20 11.06 З 1 н/о н/о +18.5 +14.8 79 +20 +20 1014.0 953.6
21 11.06 В 2 н/о н/о +17.3 +15.1 87 +18 +18 1013.2 952.6
22 11.06 Ю 1 н/о н/о +16.9 +14.6 86 +18 +18 1014.0 953.2
23 11.06 штиль 0 н/о н/о +16.1 +13.9 87 +16 +16 1013.5 952.6
00 12.06 Ю 1 н/о н/о +15.5 +13.7 89 +16 +16 1012.9 951.9
01 12.06 ЮВ 1 н/о н/о +14.7 +13.5 93 +15 +15 1013.2 952.0
02 12.06 Ю 1 н/о н/о +15.1 +14.1 94 +16 +16 1013.3 952.2
03 12.06 Ю 2 н/о н/о +15.5 +14.3 93 +15 +15 1012.8 951.8
04 12.06 Ю 1 н/о н/о +14.5 +13.6 94 +15 +15 1012.5 951.3
05 12.06 С 2 30 км 1/0
[Ci fib]
+16.2 +14.9 92 +16 +18 1012.3 951.5
06 12.06 С 2 4000 м дымка 3/3 100 м
[St]
+17.9 +15.7 87 +18 +22 1012.3 951.9 +14.3 +20.6
07 12.06 СВ 1 н/о н/о +20.3 +15.4 73 +24 +24 комфорт 1011.3 951.4
08 12.06 С 1 н/о н/о +22.3 +16.6 70 +27 +27 душно 1010.5 951.1
09 12.06 СЗ 2 н/о н/о +24.1 +17.2 65 +28 +28 душно 1009.5 950.5
10 12.06 ЮЗ 1 н/о н/о +28.1 +14.5 43 +30 +30 жарко 1008.3 950.1
11 12.06 В 4 н/о н/о +29.0 +15.6 44 +32 +32 душно 1007.7 949.7
12 12.06 штиль 0 40 км 1/1 1500 м
[Cu med, cong Ci fib]
+29.2 +15.7 44 +32 +54 опасность
солнечного
удара
1007.8 949.8
13 12.06 ЮВ 4 н/о н/о +28.8 +15.8 45 +32 +32 душно 1007.8 949.7
14 12.06 В 5 н/о н/о +29.1 +17.0 48 +33 +33 очень
душно
1007.4 949.5
15 12.06 ЮВ 5 н/о н/о +28.5 +16.3 48 +32 +32 душно 1007.6 949.5
16 12.06 ЮВ 3 н/о н/о +29.1 +13.5 38 +31 +31 жарко 1007.3 949.3
17 12.06 ЮВ 3 н/о н/о +28.2 +15.4 46 +31 +31 душно 1007.4 949.2
18 12.06 В 1 30 км 8/1 1500 м
[Cu med, cong Cs]
+27.7 +15.7 48 +31 +31 душно 1007.5 949.3 +17.6 +30.0
19 12.06 В 3 н/о н/о +24.9 +17.3 63 +29 +29 душно 1008.6 949.8
20 12.06 В 6 н/о н/о +22.0 +15.7 67 +26 +26 душно 1010.2 950.7
21 12.06 ЮВ 4 н/о н/о +20.9 +16.5 76 +25 +25 комфорт 1010.7 951.0
22 12.06 Ю 3 н/о н/о +20.4 +16.5 78 +24 +24 комфорт 1010.8 951.0
23 12.06 ЮВ 2 н/о н/о +19.6 +15.0 75 +22 +22 комфорт 1011.0 951.0
00 13.06 В 2 н/о н/о +17.6 +14.6 83 +18 +18 1011.5 951.0
01 13.06 ЮВ 3 н/о н/о +17.4 +13.7 79 +17 +17 1011.0 950.5
02 13.06 Ю 1 н/о н/о +15.5 +12.4 82 +16 +16 1011.4 950.5
03 13.06 ЮЗ 1 н/о н/о +15.0 +11.8 81 +16 +16 1012.1 951.0
04 13.06 ЮВ 1 н/о н/о +14.6 +11.6 82 +15 +15 1012.6 951.4
05 13.06 В 1 н/о н/о +18.1 +13.3 74 +19 +19 1012.6 952.1
06 13.06 В 1 30 км 1/1 1500 м
[Sc Ci fib]
+21.4 +14.0 63 +24 +29 комфорт 1011.9 952.2 +14.6 +27.5
07 13.06 С 1 н/о н/о +22.8 +14.4 59 +26 +26 жарко 1011.9 952.4
08 13.06 С 1 н/о н/о +24.9 +14.9 54 +28 +28 жарко 1011.4 952.4
09 13.06 В 1 н/о н/о +26.9 +13.8 44 +29 +29 жарко 1010.8 952.2
10 13.06 З 1 н/о н/о +27.4 +14.9 46 +30 +30 жарко 1010.7 952.2
11 13.06 Ю 1 н/о н/о +28.5 +14.2 42 +31 +31 душно 1010.3 952.0
12 13.06 З 4 30 км 1/1 1500 м
[Cu hum]
+29.5 +9.6 29 +29 +40 жарко 1009.7 951.5
13 13.06 З 3 н/о н/о +30.1 +10.8 30 +30 +30 жарко 1009.6 951.6
14 13.06 З 4 н/о н/о +29.8 +10.0 29 +30 +30 жарко 1009.6 951.5
15 13.06 З 4 н/о н/о +29.6 +8.5 27 +29 +29 жарко 1010.1 951.9
16 13.06 З 4 н/о н/о +29.0 +10.0 31 +29 +29 жарко 1010.2 951.9
17 13.06 ЮЗ 3 н/о н/о +28.5 +10.6 33 +29 +29 жарко 1010.4 952.0
18 13.06 ЮЗ 4 40 км 1/0
[Ci fib]
+26.9 +11.0 37 +28 +28 жарко 1011.0 952.3 +21.2 +30.2
19 13.06 ЮЗ 3 н/о н/о +25.2 +10.5 40 +26 +26 жарко 1011.7 952.6
20 13.06 ЮВ 1 н/о н/о +22.7 +9.7 44 +24 +24 комфорт 1013.3 953.6
21 13.06 ЮВ 1 н/о н/о +20.3 +10.6 54 +23 +23 комфорт 1014.4 954.2
22 13.06 ЮВ 2 н/о н/о +18.2 +9.8 58 +19 +19 1015.6 954.9
23 13.06 ЮВ 1 н/о н/о +15.5 +8.6 63 +16 +16 1016.2 954.9
00 14.06 ЮВ 2 н/о н/о +15.8 +8.4 61 +16 +16 1016.6 955.3
01 14.06 штиль 0 н/о н/о +13.3 +7.7 69 +13 +13 1017.5 955.7
02 14.06 ЮЗ 1 н/о н/о +13.6 +7.9 68 +14 +14 1017.4 955.6
03 14.06 штиль 0 н/о н/о +12.6 +7.9 73 +12 +12 1017.7 955.7
04 14.06 ЮЗ 1 н/о н/о +13.6 +7.3 66 +14 +14 1018.4 956.6
05 14.06 ЮВ 1 40 км 1/0
[Ci fib]
+16.7 +8.9 60 +18 +20 1018.5 957.3
06 14.06 ЮЗ 1 40 км ясно +18.6 +9.1 54 +20 +25 1018.9 958.1 +12.2 +26.9
07 14.06 З 1 н/о н/о +21.0 +10.2 50 +24 +24 комфорт 1018.9 958.6
08 14.06 З 1 н/о н/о +22.7 +9.5 43 +24 +24 комфорт 1018.6 958.6
09 14.06 С 2 н/о н/о +24.9 +10.2 40 +26 +26 жарко 1018.1 958.6
10 14.06 ЮЗ 1 н/о н/о +26.0 +10.9 39 +27 +27 жарко 1017.7 958.4
11 14.06 С 2 н/о н/о +28.7 +13.2 39 +30 +30 жарко 1016.6 958.0
12 14.06 СВ 2 40 км 1/0
[Ci fib]
+29.9 +12.3 34 +31 +48 жарко 1015.7 957.3
13 14.06 В 2 н/о н/о +30.8 +13.7 35 +32 +32 жарко 1014.8 956.7
14 14.06 СВ 1 н/о н/о +31.9 +13.5 33 +33 +33 жарко 1014.2 956.3
15 14.06 В 3 н/о н/о +32.3 +13.1 31 +33 +33 жарко 1013.4 955.6
16 14.06 В 4 н/о н/о +31.6 +12.9 32 +32 +32 жарко 1012.8 954.9
17 14.06 В 5 н/о н/о +30.4 +13.2 35 +32 +32 жарко 1012.8 954.7
18 14.06 В 5 40 км 1/0
[Ci fib]
+28.3 +12.6 38 +30 +30 жарко 1013.3 954.8 +18.7 +32.5
19 14.06 В 2 н/о н/о +25.4 +14.3 50 +28 +28 жарко 1014.0 954.9
20 14.06 ЮВ 2 н/о н/о +23.4 +14.5 57 +27 +27 душно 1015.0 955.5
21 14.06 ЮВ 2 н/о н/о +22.6 +13.8 58 +26 +26 жарко 1015.2 955.5
22 14.06 ЮВ 1 н/о н/о +19.3 +12.6 65 +22 +22 комфорт 1015.9 955.5
23 14.06 Ю 1 н/о н/о +18.6 +12.1 66 +20 +20 1016.1 955.5
00 15.06 Ю 1 н/о н/о +17.5 +11.2 67 +19 +19 1016.1 955.3
01 15.06 ЮВ 1 н/о н/о +17.7 +11.2 66 +19 +19 1015.7 954.9
02 15.06 штиль 0 н/о н/о +16.5 +11.4 72 +16 +16 1015.8 954.8
03 15.06 Ю 1 н/о н/о +16.1 +11.4 74 +17 +17 1015.5 954.4
04 15.06 З 1 н/о н/о +15.8 +11.9 78 +17 +17 1015.5 954.4
05 15.06 Ю 1 н/о н/о +17.7 +13.3 75 +19 +19 1015.3 954.6
06 15.06 З 1 40 км 6/0
[Ac lent Ci fib]
+18.8 +13.8 73 +21 +24 комфорт 1015.8 955.3 +15.3 +28.3
07 15.06 ЮВ 1 н/о н/о +21.1 +14.2 65 +24 +24 комфорт 1014.9 954.9
08 15.06 С 1 н/о н/о +24.8 +16.0 58 +28 +28 жарко 1013.9 954.7
09 15.06 СЗ 2 н/о н/о +24.1 +14.8 56 +27 +27 жарко 1014.0 954.7
10 15.06 СЗ 1 н/о н/о +23.9 +16.0 61 +27 +27 жарко 1013.9 954.6 0.0
11 15.06 В 1 н/о н/о +23.9 +17.1 66 +28 +28 душно 1013.5 954.2
12 15.06 С 1 40 км {ливн. осадки} 10/0
[Ac As]
+26.3 +18.2 61 +31 +37 душно 1012.4 953.7 0.0
13 15.06 С 1 н/о н/о +27.4 +17.7 55 +32 +32 очень
душно
1011.6 953.1
14 15.06 С 1 н/о н/о +28.4 +17.4 51 +32 +32 душно 1010.9 952.6
15 15.06 В 2 н/о н/о +28.3 +17.9 53 +33 +33 очень
душно
1010.1 951.9
16 15.06 В 3 н/о н/о +29.7 +15.0 41 +32 +32 душно 1009.1 951.1
17 15.06 ЮЗ 1 н/о н/о +29.4 +15.3 42 +32 +32 душно 1008.7 950.7
18 15.06 штиль 0 40 км 3/1 1500 м
[Cu hum Ci fib]
+27.4 +16.1 50 +31 +31 душно 1009.3 950.9 +18.9 +30.0 0.0
19 15.06 ЮЗ 1 н/о н/о +23.6 +15.3 60 +27 +27 жарко 1010.3 951.1
20 15.06 Ю 2 н/о н/о +23.3 +13.8 55 +27 +27 душно 1011.1 951.8
21 15.06 Ю 1 н/о н/о +20.7 +13.7 64 +24 +24 комфорт 1011.8 951.9
22 15.06 ЮВ 1 н/о н/о +20.3 +13.2 64 +24 +24 комфорт 1012.1 952.1
23 15.06 Ю 1 н/о н/о +18.8 +13.1 69 +21 +21 комфорт 1012.3 952.0
00 16.06 ЮЗ 1 н/о н/о +17.2 +12.8 75 +18 +18 1012.7 952.0
01 16.06 З 1 н/о н/о +16.8 +12.8 77 +18 +18 1012.6 951.9
02 16.06 штиль 0 н/о н/о +16.6 +13.1 80 +17 +17 1012.6 951.8
03 16.06 штиль 0 н/о н/о +15.0 +11.9 82 +15 +15 1013.3 952.1
04 16.06 штиль 0 н/о н/о +15.2 +12.1 82 +15 +15 1013.6 952.5
05 16.06 штиль 0 н/о н/о +18.8 +13.6 72 +20 +20 1012.9 952.6
06 16.06 СЗ 2 40 км ясно +20.2 +15.0 72 +23 +28 комфорт 1013.4 953.3 +14.4 +27.3
07 16.06 З 1 н/о н/о +23.1 +14.8 60 +27 +27 душно 1013.0 953.5 0.0
08 16.06 З 1 н/о н/о +24.2 +13.4 51 +26 +26 жарко 1012.8 953.5
09 16.06 СВ 1 н/о н/о +27.0 +14.5 46 +29 +29 жарко 1012.4 953.7 0.0
10 16.06 ЮВ 5 н/о н/о +27.3 +16.4 51 +31 +31 душно 1012.1 953.5
11 16.06 В 5 н/о н/о +28.9 +16.7 48 +33 +33 очень
душно
1011.3 953.1
12 16.06 В 5 40 км 1/1 1500 м
[Cu med, cong]
+30.3 +17.8 47 +35 +43 очень
душно
1010.4 952.5
13 16.06 В 5 н/о н/о +28.7 +17.1 49 +32 +32 душно 1010.3 952.1
14 16.06 В 5 н/о н/о +27.4 +16.6 52 +31 +31 душно 1010.6 952.1
15 16.06 Ю 1 н/о в посл. час осадки н/о +26.2 +18.4 62 +31 +31 очень
душно
1010.5 951.9 0.1
16 16.06 В 5 н/о н/о +24.1 +15.2 58 +27 +27 жарко 1012.5 953.3 0.0
17 16.06 В 4 н/о ливневой дождь н/о +20.7 +14.3 67 +24 +24 комфорт 1015.4 955.3 0.2
18 16.06 ЮВ 2 15 км в посл. час гроза {дождь} 9/9 1000 м
[Cb cap]
+17.9 +16.3 90 +18 +18 1017.0 956.3 +17.7 +30.3 2
19 16.06 ЮЗ 2 н/о н/о +17.7 +15.8 89 +18 +18 1017.8 957.0 0.0
20 16.06 штиль 0 н/о н/о +16.5 +14.5 88 +16 +16 1018.2 957.1
21 16.06 В 2 н/о н/о +16.0 +14.5 91 +16 +16 1018.9 957.7 0.0
22 16.06 ЮВ 1 н/о н/о +15.5 +13.8 90 +16 +16 1019.3 957.9
23 16.06 штиль 0 н/о н/о +14.9 +13.8 93 +15 +15 1019.5 958.0
00 17.06 ЮВ 1 н/о н/о +14.7 +13.1 90 +15 +15 1019.5 957.9 0.0
01 17.06 Ю 1 н/о н/о +14.1 +12.8 92 +14 +14 1019.6 957.9
02 17.06 штиль 0 н/о н/о +13.8 +12.6 92 +13 +13 1019.6 957.8
03 17.06 ЮВ 1 н/о н/о +13.2 +12.2 94 +13 +13 1020.4 958.4
04 17.06 штиль 0 н/о н/о +14.0 +13.0 94 +14 +14 1020.2 958.4
05 17.06 штиль 0 200 м туман ?/? +14.5 +14.1 97 +14 +14 1020.1 958.5
06 17.06 СЗ 1 2000 м в посл. час туман 10/10 50 м
[St]
+16.4 +15.0 91 +17 +17 1019.6 958.4 +12.8 +18.7 0.0
07 17.06 С 2 н/о н/о +18.9 +15.8 82 +21 +21 комфорт 1019.0 958.4
08 17.06 СЗ 3 н/о н/о +19.8 +14.6 72 +22 +22 комфорт 1018.4 958.0
09 17.06 С 2 н/о н/о +22.1 +14.2 61 +25 +25 комфорт 1017.9 957.9
10 17.06 С 1 н/о н/о +23.6 +14.2 56 +26 +26 жарко 1017.2 957.6 0.0
11 17.06 В 4 н/о н/о +23.5 +13.3 53 +26 +26 жарко 1017.2 957.5
12 17.06 ЮВ 5 30 км 10/5 1500 м
[Cu Sc Ac lent Cs]
+24.3 +12.6 48 +26 +29 жарко 1016.6 957.1
13 17.06 ЮВ 5 н/о н/о +24.3 +13.8 52 +27 +27 жарко 1016.2 956.8
15 17.06 В 5 н/о н/о +22.6 +14.4 60 +26 +26 жарко 1016.3 956.5 0.0
17 17.06 В 4 н/о н/о +22.4 +14.5 61 +26 +26 жарко 1016.0 956.2
18 17.06 ЮВ 3 30 км {ливн. осадки} 10/4 1000 м
[Cu Sc Ac lent Cs]
+22.0 +14.1 61 +25 +25 комфорт 1015.9 956.0 +16.3 +25.3 0.0
19 17.06 ЮВ 3 н/о н/о +21.4 +14.1 63 +24 +24 комфорт 1016.3 956.3
20 17.06 ЮВ 3 н/о н/о +21.3 +14.1 63 +24 +24 комфорт 1016.8 956.7

 

Местоположение метеостанции Файстриц-об-Блайбург (Австрия): широта 46.57 долгота 14.77 высота над уровнем моря 527 м.

В архиве по умолчанию представлена погода в Файстриц-об-Блайбурге за последнюю неделю. Архивные данные за месяц целиком и за предыдущие месяцы, начиная с января 2011 года, Вы можете получить, выбрав интересующий диапазон дат из раскрывающегося списка и нажав кнопку "Ввод!".


*Определитесь, кто Вы:
робот инопланетянин человек

Внимание! Время в таблицах - всемирное. Для получения местного времени необходимо прибавить поправку, которая равна 1 ч.

Смотрите также архив погоды в соседних городах и на ближайших метеорологических станциях:

Погода Айзенкаппель-Феллах (Австрия) (16 км)
Погода в Санкт-Андре (Австрия) (23 км)
Погода в Словень-Градеце (Словения) (29 км)
Погода в Клагенфурте (Австрия) (35 км)
Погода в Клагенфурте (Австрия) (35 км)
Погода в Прайтенеге (Австрия) (42 км)
Погода в Дойчландсберге (Австрия) (45 км)
Погода в Любляне аэропорту (Словения) (45 км)
Погода в Пёрчах-ам-Вёртерзе (Австрия) (46 км)
Погода в Лесце (Словения) (50 км)

Пояснения к столбцам:

Ветер - указаны скорость ветра в м/с - средняя за 10 мин, порывы в срок и между сроками (в фигурных скобках) и направление, откуда дует ветер: С - северный, СВ - северо-восточный, В - восточный, ЮВ - юго-восточный, Ю - южный, ЮЗ - юго-западный, З - западный, СЗ - северо-западный.
Видимость - горизонтальная дальность видимости в метрах или километрах. При видимости от 1 до 10 км при отсутствии осадков обычно наблюдается дымка, при ухудшении видимости до 1 км и менее - туман. В сухую погоду видимость может ухудшаться дымом, пылью или мглою.
Явления - указаны атмосферные явления, наблюдавшиеся в срок или в последний час перед сроком; фигурными скобками обозначены явления, наблюдавшиеся между сроками (за 1-3 часа до срока); квадратными скобками обозначены град или гололедные отложения с указанием их диаметра в мм.
Облачность - указаны через наклонную черту общая и нижняя облачность в баллах и высота нижней границы облаков в метрах; квадратными скобками обозначены формы облаков: Ci - перистые, Cs - перисто-слоистые, Cc - перисто-кучевые, Ac - высококучевые, As - высокослоистые, Sc - слоисто-кучевые, Ns - слоисто-дождевые, Cu - кучевые, Cb - кучево-дождевые. Подробнее классификацию облаков см. в Атласе облаков (PDF).
T - Температура воздуха - температура, измеренная на высоте 2 м над землей.
Td - Температура точки росы - температура, при понижении до которой содержащийся в воздухе водяной пар достигнет насыщения.
f - Относительная влажность воздуха - влажноcть воздуха, измеренная на высоте 2 м над землей.
Te - Эффективная температура - температура, которую ощущает одетый по сезону человек в тени. Характеристика душности погоды. При расчете учитывается влияние влажности воздуха и скорости ветра на теплоощущения человека.
Tes - Эффективная температура на солнце - температура, которую ощущает человек, с поправкой на солнечный нагрев. Характеристика знойности погоды. Зависит от высоты солнца над горизонтом, облачности и скорости ветра. Ночью, в пасмурную погоду, а также при ветре 12 м/с и более поправка равна нулю.
P - Атмосферное давление - приведенное к уровню моря атмосферное давление.
Po - Атмосферное давление - измеренное на уровне метеостанции атмосферное давление.
Tmin - Минимальная температура - минимум температуры воздуха на высоте 2 м над землей.
Tmax - Максимальная температура - максимум температуры воздуха на высоте 2 м над землей.
R - Количество осадков - Количество выпавших осадков за период времени, мм. При наведении курсора мыши на число - период времени, за который выпало указанное количество осадков.
R24 - Количество осадков - Количество выпавших осадков за 24 часа, мм.
S - Снежный покров - Высота снежного покрова, см. При наведении курсора мыши на число - состояние снежного покрова и степень покрытия местности в баллах.